LRCL Weather Reports


Display with metric or nautical units.
time (UTC)temp
F
wind
direction
speed
MPH
gust
MPH
rain 1hr
in
rain 24hr
in
rain mn
in
humidity
%
barometer
mb
20260906014809 61 270 5.0 0.0 0.00 0.00 0.00 68 1020.0
20260906013422 61 270 5.0 0.0 0.00 0.00 0.00 68 1020.0
20260906011808 61 260 5.0 0.0 0.00 0.00 0.00 68 1020.0
20260906010308 61 260 5.0 0.0 0.00 0.00 0.00 68 1020.0
20260906004923 59 250 7.0 0.0 0.00 0.00 0.00 77 1020.0
20260906003433 0 0.0 0.0 0.00 0.00 0.00
20260906001922 61 270 6.0 0.0 0.00 0.00 0.00 72 1020.0
20260906000412 63 280 6.0 0.0 0.00 0.00 0.00 68 1019.0
20260905234818 63 280 6.0 0.0 0.00 0.00 0.00 68 1019.0
20260905233308 63 280 6.0 0.0 0.00 0.00 0.00 68 1019.0
20260905231922 61 280 6.0 0.0 0.00 0.00 0.00 77 1019.0
20260905230340 61 280 6.0 0.0 0.00 0.00 0.00 77 1019.0
20260905224923 64 280 7.0 0.0 0.00 0.00 0.00 68 1019.0
20260905223322 64 280 7.0 0.0 0.00 0.00 0.00 68 1019.0
20260905221907 64 310 7.0 0.0 0.00 0.00 0.00 68 1020.0
20260905220422 64 310 7.0 0.0 0.00 0.00 0.00 68 1020.0
20260905214922 66 290 7.0 0.0 0.00 0.00 0.00 68 1019.0
20260905213308 66 290 7.0 0.0 0.00 0.00 0.00 68 1019.0
20260905211808 68 310 9.0 0.0 0.00 0.00 0.00 64 1019.0
20260905210308 68 310 9.0 0.0 0.00 0.00 0.00 64 1019.0
20260905204818 70 330 10.0 0.0 0.00 0.00 0.00 64 1019.0
20260905203308 70 330 10.0 0.0 0.00 0.00 0.00 64 1019.0
20260905201808 68 290 5.0 0.0 0.00 0.00 0.00 69 1018.0
20260905200423 70 310 9.0 0.0 0.00 0.00 0.00 64 1018.0
20260905194914 70 310 9.0 0.0 0.00 0.00 0.00 64 1018.0
20260905193308 70 310 9.0 0.0 0.00 0.00 0.00 64 1018.0
20260905191837 70 310 8.0 0.0 0.00 0.00 0.00 64 1017.0
20260905190309 70 310 8.0 0.0 0.00 0.00 0.00 64 1017.0
20260905184809 72 310 11.0 0.0 0.00 0.00 0.00 57 1017.0
20260905183313 72 310 11.0 0.0 0.00 0.00 0.00 57 1017.0
20260905181808 72 320 13.0 0.0 0.00 0.00 0.00 57 1017.0
20260905180309 72 320 13.0 0.0 0.00 0.00 0.00 57 1017.0
20260905174808 72 310 10.0 0.0 0.00 0.00 0.00 57 1016.0
20260905173308 72 310 10.0 0.0 0.00 0.00 0.00 57 1016.0
20260905171819 75 290 15.0 0.0 0.00 0.00 0.00 47 1016.0
20260905170308 75 290 15.0 0.0 0.00 0.00 0.00 47 1016.0
20260905164808 77 270 9.0 0.0 0.00 0.00 0.00 42 1016.0
20260905163309 77 270 9.0 0.0 0.00 0.00 0.00 42 1016.0
20260905161809 77 280 8.0 0.0 0.00 0.00 0.00 44 1016.0
20260905160309 77 280 8.0 0.0 0.00 0.00 0.00 44 1016.0
20260905154825 75 300 6.0 0.0 0.00 0.00 0.00 50 1016.0
20260905153308 75 300 6.0 0.0 0.00 0.00 0.00 50 1016.0
20260905151808 77 350 11.0 0.0 0.00 0.00 0.00 47 1017.0
20260905150309 77 350 11.0 0.0 0.00 0.00 0.00 47 1017.0
20260905144808 79 300 9.0 0.0 0.00 0.00 0.00 45 1016.0
20260905143308 79 300 9.0 0.0 0.00 0.00 0.00 45 1016.0
20260905141808 79 320 10.0 0.0 0.00 0.00 0.00 45 1016.0
20260905140308 79 320 10.0 0.0 0.00 0.00 0.00 45 1016.0
20260905134919 82 330 14.0 0.0 0.00 0.00 0.00 40 1015.0
20260905133308 82 330 14.0 0.0 0.00 0.00 0.00 40 1015.0
20260905131811 84 340 14.0 0.0 0.00 0.00 0.00 35 1015.0
20260905130330 84 340 14.0 0.0 0.00 0.00 0.00 35 1015.0
20260905124809 86 350 14.0 0.0 0.00 0.00 0.00 33 1015.0
20260905123309 86 350 14.0 0.0 0.00 0.00 0.00 33 1015.0
20260905121835 88 360 14.0 0.0 0.00 0.00 0.00 31 1015.0
20260905120309 88 360 14.0 0.0 0.00 0.00 0.00 31 1015.0
20260905114808 88 340 8.0 0.0 0.00 0.00 0.00 31 1015.0
20260905113308 88 340 8.0 0.0 0.00 0.00 0.00 31 1015.0
20260905111827 90 10 9.0 0.0 0.00 0.00 0.00 31 1015.0
20260905110308 90 10 9.0 0.0 0.00 0.00 0.00 31 1015.0
20260905104808 86 2.0 0.0 0.00 0.00 0.00 33 1015.0
20260905103308 86 2.0 0.0 0.00 0.00 0.00 33 1015.0
20260905101808 88 3.0 0.0 0.00 0.00 0.00 31 1015.0
20260905100309 88 3.0 0.0 0.00 0.00 0.00 31 1015.0
20260905094923 86 70 5.0 0.0 0.00 0.00 0.00 33 1015.0
20260905093308 86 70 5.0 0.0 0.00 0.00 0.00 33 1015.0
20260905091808 84 40 5.0 0.0 0.00 0.00 0.00 37 1015.0
20260905090308 84 40 5.0 0.0 0.00 0.00 0.00 37 1015.0
20260905084808 82 50 6.0 0.0 0.00 0.00 0.00 40 1015.0
20260905083308 82 50 6.0 0.0 0.00 0.00 0.00 40 1015.0
20260905081808 79 60 6.0 0.0 0.00 0.00 0.00 45 1015.0
20260905080309 79 60 6.0 0.0 0.00 0.00 0.00 45 1015.0
20260905074808 75 60 6.0 0.0 0.00 0.00 0.00 50 1016.0
20260905073317 75 60 6.0 0.0 0.00 0.00 0.00 50 1016.0
20260905071808 70 70 3.0 0.0 0.00 0.00 0.00 57 1016.0
20260905070308 70 70 3.0 0.0 0.00 0.00 0.00 57 1016.0
20260905064809 66 2.0 0.0 0.00 0.00 0.00 64 1016.0
20260905063309 66 2.0 0.0 0.00 0.00 0.00 64 1016.0
20260905061809 63 1.0 0.0 0.00 0.00 0.00 73 1016.0
20260905060309 63 1.0 0.0 0.00 0.00 0.00 73 1016.0
20260905054808 59 1.0 0.0 0.00 0.00 0.00 82 1016.0
20260905053309 59 1.0 0.0 0.00 0.00 0.00 82 1016.0
20260905051808 57 2.0 0.0 0.00 0.00 0.00 82 1016.0
20260905050308 57 2.0 0.0 0.00 0.00 0.00 82 1016.0
20260905044808 55 0 0.0 0.0 0.00 0.00 0.00 88 1016.0
20260905043308 55 0 0.0 0.0 0.00 0.00 0.00 88 1016.0
20260905041808 55 0 0.0 0.0 0.00 0.00 0.00 88 1016.0
20260905040308 55 0 0.0 0.0 0.00 0.00 0.00 88 1016.0
20260905034809 55 80 2.0 0.0 0.00 0.00 0.00 88 1016.0
20260905033308 55 80 2.0 0.0 0.00 0.00 0.00 88 1016.0
20260905031808 55 90 3.0 0.0 0.00 0.00 0.00 88 1016.0
20260905030308 55 90 3.0 0.0 0.00 0.00 0.00 88 1016.0
20260905024821 55 100 3.0 0.0 0.00 0.00 0.00 88 1016.0
20260905023308 55 100 3.0 0.0 0.00 0.00 0.00 88 1016.0
20260905021808 57 70 3.0 0.0 0.00 0.00 0.00 82 1016.0
20260905020309 57 70 3.0 0.0 0.00 0.00 0.00 82 1016.0